NOAA 16 DEB, 41206

Orbit data source: Space-Track

NOAA 16 DEB, 41206 is space debris in SSO originally from a launch on Thu, 21 Sep 2000 UTC launched from the Air Force Western Test Range (AFWTR). Debris objects in space refer to the collection of defunct objects orbiting the Earth. Examples of debris include non-operational satellites, rocket bodies, and fragments generated from explosions, collisions, or faulty payload assembly.

Loading next visibility...
Identifier
41206, 2000-055DK
Orbit
SSO
Country
Flag of USUS
Related business
Manufacturer
Unknown
Mission
Spacecraft
Bus & Motor
Unknown
Mass
Unknown
Launch date (UTC)
2000-09-21 (26 years ago)
Launch vehicle
Unknown
Launch site
Air Force Western Test Range (AFWTR)
Object type
Payload
Rocket body
Debris
Shape & HBR
Unknown shape, 0.1 m
Radar Cross Section
Small (<0.1 m²)

Expand to show TLE details & history
Last TLE update: 3 days ago

TLE from 3 days ago
0 NOAA 16 DEB
1 41206U 00055DK  26127.55834267  .00002393  00000-0  10219-2 0  9993
2 41206  98.6147 169.8409 0009275 268.6012  91.4106 14.25929052536795
Epoch: 2026-05-07T13:24Z
TLE epoch observation values (Epoch: 2026-05-07T13:24:00.806Z)
Latitude
0.00001°
Longitude
103.43478°
Altitude
808.467 km
Speed
7.449 km/s
True Right ascension
11h 19m 21s
True Declination
0° 00' 00"
Sunlit
Object was in full shadow at epoch
Visualization orbit readout
Latitude
Unknown
Longitude
Unknown
Altitude
Unknown
Speed
Unknown
Apparent Right ascension
Unknown
Apparent Declination
Unknown
Sunlit
N/A
Visualization observer readout
Local Sidereal Time
08:08:03
Azimuth
Unknown
Elevation
Unknown
Doppler factor
Unknown
Orbital elements
Apogee altitude
809.177 km
Perigee altitude
795.857 km
Semi-major axis
7,180.654 km
Eccentricity
0.00093
Inclination
98.6147°
RAAN
169.8409°
Arg. of periapsis
268.6012°
True anomaly
91.51685°
Mean anomaly
91.4106°
Eccentric anomaly
91.46372°
Mean motion
3.56695 °/min
Orbital period
100.93 mins
BSTAR
0.0010219
Loading maneuver chart data...
Computing Atmospheric mass density...
Loading historical data...
Loading historical data...
Loading historical data...
Loading historical data...
Loading historical data...
Loading historical data...
Loading historical data...

Documentation

Showing up to 5 results
|